Location: Burbank
(38.7788°N, 114.0429°W)
Time: 13:41:05
(UTC+00:00)

Vanguard 2 - Pass Details

Date: 16 May 2026
Orbit: 553 x 2894 km, 32.9° (Epoch: 6 June)

Event Time Altitude Azimuth Distance (km) Brightness Sun altitude
Rises 10:23:54 0° 253° (WSW) 6,508 - -19.5°
Reaches altitude 10° 10:28:04 10° 251° (WSW) 5,618 - -19.0°
Exits shadow 10:30:43 17° 249° (WSW) 5,064 11.1 -18.6°
Maximum altitude 10:45:36 69° 173° (S) 2,904 10.2 -16.5°
Drops below altitude 10° 11:00:03 10° 94° (E) 4,743 12.2 -14.4°
Sets 11:03:14 0° 92° (E) 5,487 12.7 -13.9°
